Skip Page Navigation
NASA JPL Caltech
NASA Logo - Jet Propulsion Laboratory + View the NASA Portal
+ Center for Near-Earth Object Studies
JPL Home Earth Solar System Stars & Galaxies Technology
JPL Solar System Dynamics
BODIES ORBITS EPHEMERIDES TOOLS PHYSICAL DATA DISCOVERY FAQ SITE MAP
JPL Small-Body Database Browser
Search: [ help ]  
300178 (2006 WV36)
Classification: Outer Main-belt Asteroid          SPK-ID: 2300178
Ephemeris | Orbit Diagram | Orbital Elements | Mission Design | Physical Parameters | Discovery Circumstances | Close-Approach Data ]

[ show orbit diagram ]
Orbital Elements at Epoch 2459000.5 (2020-May-31.0) TDB
Reference: JPL 11 (heliocentric ecliptic J2000)
 Element Value Uncertainty (1-sigma)   Units 
e .06382598924653864 4.7933e-08  
a 3.229569521351633 4.7363e-08 au
q 3.023439051810895 1.6143e-07 au
i 9.688888712232371 5.5211e-06 deg
node 89.07399232614573 4.9485e-05 deg
peri 205.968013808245 8.2259e-05 deg
M 237.8217305489086 6.4945e-05 deg
tp 2459719.960329517674
(2022-May-20.46032952)
0.00038182 TDB
period 2119.900042699853
5.80
4.6634e-05
1.277e-07
d
yr
n .1698193276799564 3.7357e-09 deg/d
Q 3.435699990892372 5.0386e-08 au
  Orbit Determination Parameters
   # obs. used (total)      151  
   data-arc span      6237 days (17.08 yr)  
   first obs. used      2003-03-23  
   last obs. used      2020-04-19  
   planetary ephem.      DE431  
   SB-pert. ephem.      SB431-N16  
   condition code      0  
   norm. resid. RMS      .60503  
   source      ORB  
   producer      Otto Matic  
   solution date      2020-May-21 19:34:38  

Additional Information
 Earth MOID = 2.01062 au 
 Jupiter MOID = 1.70204 au 
 T_jup = 3.161 
[ show covariance matrix ]

Ephemeris | Orbit Diagram | Orbital Elements | Mission Design | Physical Parameters | Discovery Circumstances | Close-Approach Data ]

Physical Parameter Table
Parameter Symbol Value Units Sigma Reference Notes
absolute magnitude H 15.7   n/a MPO423148  

300178 (2006 WV36)          Discovered 2006-Nov-16 by Spacewatch at Kitt Peak
Reference: 20111012/Numbers.arcLast Updated: 2011-10-13

[ show close-approach data ]
Ephemeris | Orbit Diagram | Orbital Elements | Mission Design | Physical Parameters | Discovery Circumstances | Close-Approach Data ]
ABOUT SSD CREDITS/AWARDS PRIVACY/COPYRIGHT GLOSSARY LINKS
FirstGov 2020-Jul-07 13:20 UT
(server date/time)  
NASA Home Page
Site Manager:   Ryan S. Park
Webmaster  Alan B. Chamberlin